This is the latest recevied weather packets stored in our database for station/object EMGATE. If no packets are shown the sender has not sent any weather packets the latest 10 day(s).
| Time | Temp. | Humidity | Pressure | Rain* | Wind** | Luminosity | Snow |
|---|---|---|---|---|---|---|---|
| 1777464541 | 11.11° C | 48% | 1013.9 hPa | 0 mm | - | - | - |
| 1777463642 | 10.56° C | 50% | 1013.9 hPa | 0 mm | - | - | - |
| 1777462741 | 10° C | 50% | 1013.9 hPa | 0 mm | - | - | - |
| 1777461841 | 10° C | 48% | 1013.7 hPa | 0 mm | - | - | - |
| 1777460942 | 10° C | 48% | 1013.6 hPa | 0 mm | - | - | - |
| 1777460042 | 10° C | 48% | 1013.5 hPa | 0 mm | - | - | - |
| 1777459141 | 10° C | 51% | 1013.4 hPa | 0 mm | - | - | - |
| 1777458242 | 9.44° C | 51% | 1013.4 hPa | 0 mm | - | - | - |
| 1777457342 | 9.44° C | 58% | 1013.2 hPa | 0 mm | - | - | - |
| 1777456442 | 8.89° C | 58% | 1013.1 hPa | 0 mm | - | - | - |
| 1777455542 | 8.89° C | 58% | 1013.1 hPa | 0 mm | - | - | - |
| 1777454642 | 8.89° C | 58% | 1012.9 hPa | 0 mm | - | - | - |
| 1777453742 | 9.44° C | 58% | 1012.8 hPa | 0 mm | - | - | - |
| 1777452842 | 10° C | 58% | 1012.8 hPa | 0 mm | - | - | - |
| 1777451942 | 10° C | 58% | 1012.8 hPa | 0 mm | - | - | - |
| 1777451042 | 10.56° C | 59% | 1012.8 hPa | 0 mm | - | - | - |
| 1777450142 | 11.11° C | 58% | 1013 hPa | 0 mm | - | - | - |
| 1777449242 | 11.11° C | 57% | 1013 hPa | 0 mm | - | - | - |
| 1777448342 | 11.67° C | 55% | 1013 hPa | 0 mm | - | - | - |
| 1777447442 | 12.22° C | 55% | 1013 hPa | 0 mm | - | - | - |
| 1777446542 | 12.22° C | 54% | 1013 hPa | 0 mm | - | - | - |
| 1777445642 | 12.78° C | 54% | 1013.1 hPa | 0 mm | - | - | - |
| 1777444742 | 12.78° C | 53% | 1013.2 hPa | 0 mm | - | - | - |
| 1777443842 | 13.33° C | 53% | 1013.1 hPa | 0 mm | - | - | - |
| 1777442942 | 13.33° C | 54% | 1013.1 hPa | 0 mm | - | - | - |
* Rain latest hour (hover to see other rain measurements)
** Current wind speed in m/s (hover to see current wind gust speed)